Volver al catálogo

NAVSTAR 30

USA 88

ActivoNavegaciónMEO
NORAD 22446·PAYLOAD·🇺🇸 United States

Lanzado Feb 3, 1993 desde Cape Canaveral Space Force Station

Loading…

Próximos Pases (próximas 24 horas)

TLE

ActualizadoSource: Space-Track

Época: Sep 11, 2026, 09:47 UTC

1 22446U 93007A   26254.40817638 -.00000010  00000-0  00000-0 0  9995
2 22446  53.2270 239.9255 0027559  43.6841 131.7748  1.88094935235624

Sigue NAVSTAR 30 en tiempo real con AllMySat

Download on the App Store